RH
40 41 36 32 31 29 28 28 29 27 27 26 27 24 19 22 26 25 16 12 10 15 23 34 38 32 25 22 23 24 17 13 11 11 13 15 15 15 18 23 25 26 23
44 43 37 33 31 32 30 29 28 25 25 25 23 22 21 25 20 15 14 10 11 13 15 18 23 18 18 21 19 15 13 12 14 16 18 21 21 22 30 32 32 33 35
45 43 35 33 31 35 35 31 26 24 22 20 19 20 22 24 20 19 14 11 11 14 13 13 15 17 19 18 16 15 16 16 18 20 26 30 27 30 36 39 36 32 35
48 42 37 32 31 31 32 29 25 23 20 17 17 21 23 27 23 20 15 12 12 12 14 15 17 18 19 18 17 18 19 19 20 25 33 37 32 31 33 34 35 34 35
51 46 39 31 33 33 31 30 29 26 20 17 18 22 24 29 24 22 17 15 15 14 14 15 16 18 18 19 20 20 20 19 20 27 30 33 33 31 27 26 28 31 35
51 50 42 34 32 32 32 33 32 30 24 19 19 21 24 26 26 21 19 18 18 18 18 18 18 19 20 22 23 23 23 22 23 28 29 29 30 26 24 23 21 22 25
52 51 47 39 36 32 34 35 33 30 27 24 27 27 24 27 28 21 20 19 19 20 20 21 21 22 23 24 24 25 24 24 25 25 30 31 27 23 22 22 21 20 19
56 51 50 40 39 34 35 37 36 33 29 26 29 33 30 30 30 24 23 21 20 21 21 21 21 22 22 24 24 25 24 24 24 24 24 29 24 23 24 24 23 22 19
56 56 50 41 40 37 35 38 39 38 34 30 28 32 34 35 34 27 25 24 23 25 25 25 25 25 26 27 27 28 28 28 29 27 28 31 29 26 26 26 26 24 23
54 56 53 46 43 40 38 39 40 41 40 35 32 29 28 28 27 28 29 29 27 25 25 26 28 28 29 30 31 31 30 31 32 31 32 33 36 41 36 35 32 29 26
56 60 56 51 47 44 44 40 41 44 44 40 36 32 30 29 28 28 29 28 28 28 28 29 28 28 29 30 31 31 32 33 33 33 33 34 37 43 46 42 40 39 36
62 60 57 56 50 47 45 42 42 44 47 44 40 35 33 30 29 28 28 28 28 29 29 29 29 29 30 30 31 31 32 33 34 34 34 34 34 40 49 46 42 42 42
60 59 56 56 53 47 45 46 43 46 48 47 43 38 35 32 30 28 28 28 28 28 28 29 29 29 30 31 31 32 33 34 35 36 37 37 36 37 44 44 41 42 44
66 59 54 51 49 46 45 47 44 46 48 48 44 41 38 36 34 31 28 27 27 27 28 28 29 29 30 30 31 32 34 36 37 38 38 37 37 37 40 43 40 41 43
62 60 58 56 53 48 46 46 46 46 47 48 45 41 38 34 32 31 31 28 28 27 27 29 31 33 33 32 32 34 36 37 39 38 38 38 39 39 40 44 44 46 50
61 63 59 56 55 52 49 47 47 46 50 50 44 39 35 32 31 30 31 32 31 30 31 33 36 36 35 34 35 38 38 39 40 40 40 42 44 46 44 44 46 51 53
60 64 64 54 50 46 45 44 48 50 49 45 42 38 33 31 31 30 31 33 34 33 32 33 34 33 33 34 38 41 41 41 40 41 41 42 42 44 46 48 50 53 56
61 64 71 66 53 51 53 50 49 47 46 45 43 40 37 36 36 35 34 34 34 33 33 34 34 34 34 37 42 44 44 41 41 40 39 39 41 43 43 47 54 61 62
64 64 68 69 61 57 56 55 53 52 50 48 45 43 43 42 40 39 39 37 36 35 36 35 34 35 38 43 47 47 46 46 44 43 42 43 42 43 47 50 53 58 59
63 66 68 68 68 63 59 59 58 56 53 51 48 46 46 45 44 42 40 40 40 39 37 38 38 41 42 46 52 48 48 47 46 44 42 39 37 39 44 48 51 55 58
66 64 67 67 68 69 66 63 61 57 55 53 51 49 48 46 44 42 39 39 38 37 37 39 41 45 49 49 51 45 44 44 41 30 30 32 34 37 40 44 48 52 54
62 61 61 61 62 64 62 59 55 51 48 47 44 44 43 42 41 40 38 36 34 34 34 36 39 43 43 41 44 42 37 33 34 31 38 37 37 40 41 44 47 50 52
64 60 58 61 61 59 58 54 52 50 45 43 42 42 40 39 38 38 37 36 36 37 39 43 45 45 44 39 37 39 43 39 42 39 36 36 38 40 42 44 45 49 51
66 65 63 59 58 58 58 54 48 46 44 41 41 40 38 36 34 33 32 32 33 35 35 37 36 35 35 34 34 34 37 41 40 43 39 35 41 44 45 49 54 55 56
68 64 64 65 62 58 55 56 54 48 43 41 39 36 34 32 31 29 27 25 25 25 27 29 28 26 26 26 27 31 33 38 39 40 40 42 49 47 51 54 54 51 50
66 67 65 61 60 56 52 51 49 49 48 44 38 36 33 31 29 28 26 25 24 24 25 24 22 21 20 20 23 27 32 39 38 40 45 52 55 51 45 45 44 40 39